Location: Pinon Ridge Observatory
(38.3507°N, 107.9359°W)
Time: 18:09:59
(UTC-06:00)

Envisat - Visible Passes

Search period start: 25 May 2018 00:00
Search period end: 04 June 2018 00:00
Orbit: 764 x 766 km, 98.2° (Epoch: 25 May)

Date Brightness Start Highest point End Pass type
(mag) Time Alt. Az. Time Alt. Az. Time Alt. Az.
25 May 5.9 22:08:34 10° W 22:09:22 10° W 22:10:10 10° W visible
26 May 5.1 21:28:08 10° SSW 21:32:16 25° W 21:36:25 10° NW visible
27 May 3.7 20:50:24 10° S 20:55:22 58° W 21:00:23 10° NNW visible
28 May 5.7 21:55:32 10° WSW 21:58:05 14° W 22:00:37 10° WNW visible
29 May 4.7 21:16:34 10° SSW 21:21:03 32° W 21:25:34 10° NNW visible
31 May 5.5 21:43:26 10° SW 21:46:49 18° W 21:50:12 10° NW visible
01 Jun 4.3 21:05:06 10° SSW 21:09:50 40° W 21:14:37 10° NNW visible
03 Jun 5.2 21:31:37 10° SW 21:35:33 23° W 21:39:32 10° NW visible
